This is the latest recevied weather packets stored in our database for station/object KE5VT. If no packets are shown the sender has not sent any weather packets the latest 10 day(s).
| Time | Temp. | Humidity | Pressure | Rain* | Wind** | Luminosity | Snow |
|---|---|---|---|---|---|---|---|
| 1777560879 | 15.56° C | 89% | 1007 hPa | 0 mm | - | 183 W/m² | - |
| 1777560578 | 15.56° C | 92% | 1007.2 hPa | 0 mm | - | 161 W/m² | - |
| 1777560275 | 15° C | 92% | 1007.1 hPa | 0 mm | - | 86 W/m² | - |
| 1777559972 | 15° C | 93% | 1006.7 hPa | 0 mm | - | 70 W/m² | - |
| 1777559667 | 15° C | 96% | 1006.7 hPa | 0 mm | - | 101 W/m² | - |
| 1777559365 | 15° C | 97% | 1006.8 hPa | 0 mm | - | 142 W/m² | - |
| 1777559061 | 14.44° C | 97% | 1007 hPa | 0 mm | - | 115 W/m² | - |
| 1777558756 | 14.44° C | 97% | 1006.8 hPa | 0 mm | - | 214 W/m² | - |
| 1777558452 | 13.89° C | 97% | 1006.5 hPa | 0 mm | - | 133 W/m² | - |
| 1777558149 | 13.89° C | 98% | 1006.3 hPa | 0 mm | - | 149 W/m² | - |
| 1777557845 | 13.89° C | 98% | 1006.2 hPa | 0 mm | - | 94 W/m² | - |
| 1777557543 | 13.33° C | 98% | 1006.2 hPa | 0 mm | - | 71 W/m² | - |
| 1777557238 | 13.33° C | 98% | 1006.3 hPa | 0 mm | - | 59 W/m² | - |
| 1777556934 | 13.33° C | 99% | 1006.3 hPa | 0 mm | - | 33 W/m² | - |
| 1777556629 | 13.89° C | 99% | 1006.4 hPa | 0 mm | - | 37 W/m² | - |
| 1777556324 | 13.89° C | 99% | 1006.6 hPa | 0 mm | - | 44 W/m² | - |
| 1777556021 | 13.89° C | 99% | 1006.6 hPa | 1.27 mm | - | 49 W/m² | - |
| 1777555716 | 13.89° C | 99% | 1006.3 hPa | 1.27 mm | - | 49 W/m² | - |
| 1777555412 | 13.89° C | 99% | 1006.5 hPa | 0 mm | - | 46 W/m² | - |
| 1777555109 | 14.44° C | 99% | 1006.9 hPa | 0 mm | - | 39 W/m² | - |
| 1777554807 | 15° C | 99% | 1007 hPa | 1.78 mm | - | 42 W/m² | - |
| 1777554503 | 15° C | 99% | 1007.4 hPa | 1.78 mm | - | 27 W/m² | - |
| 1777554200 | 15° C | 99% | 1007.5 hPa | 1.27 mm | - | 26 W/m² | - |
| 1777553897 | 15° C | 99% | 1007.8 hPa | 4.32 mm | - | 26 W/m² | - |
| 1777553593 | 15° C | 99% | 1007.8 hPa | 4.83 mm | - | 15 W/m² | - |
* Rain latest hour (hover to see other rain measurements)
** Current wind speed in m/s (hover to see current wind gust speed)